Location: Luxembourg
(49.6117°N, 6.1300°E)
Time: 03:06:24
(UTC+02:00)

Tiangong 2 - Pass Details

Date: 24 May 2019
Orbit: 376 x 388 km, 42.8° (Epoch: 26 June)

Event Time Altitude Azimuth Distance (km) Brightness Sun altitude
Rises 23:46:28 0° 259° (W) 2,234 5.1 -15.7°
Reaches altitude 10° 23:48:57 10° 239° (WSW) 1,382 3.8 -15.9°
Enters shadow 23:49:47 14° 226° (SW) 1,172 3.3 -16.0°
